Regional Weather Roundup
Issued by NWS

Home | Current Version | Previous Version | Graphics & Text | Print | Product List | Glossary On
Versions: 1 2 3 4 5 6 7 8 9 10 11 12 13 14 15 16 17 18 19 20 21 22 23 24 25 26 27 28 29 30 31 32 33 34 35 36 37 38 39 40 41 42 43 44 45 46 47 48 49 50
000
ASUS43 KDTX 032110
RWRMI
MICHIGAN HOURLY REGIONAL WEATHER ROUNDUP
NATIONAL WEATHER SERVICE DETROIT/PONTIAC MI
400 PM EST SAT DEC 03 2016

NOTE: "FAIR" INDICATES FEW OR NO CLOUDS BELOW 12,000 FEET WITH NO
SIGNIFICANT WEATHER AND/OR OBSTRUCTION TO VISIBILITY.

MIZ047>049-052>055-059>063-066>070-074>076-081>083-032200-
SOUTHEAST LOWER MICHIGAN

CITY           SKY/WX    TMP DP  RH WIND       PRES   REMARKS
ADRIAN         CLOUDY    36  28  73 W5        30.31F WCI  32
ALMA           CLOUDY    38  29  71 W6G16     30.28F WCI  34
ANN ARBOR      CLOUDY    36  29  75 CALM      30.29S
BAD AXE        CLOUDY    38  33  83 W7        30.28R WCI  32
CARO           CLOUDY    38  32  80 W6        30.27S WCI  33
DETROIT CITY   CLOUDY    39  29  67 W7        30.29S WCI  34
DETROIT        CLOUDY    37  28  70 W10       30.31S WCI  30
FLINT          CLOUDY    38  30  73 W8        30.29F WCI  32
GROSSE ILE     CLOUDY    37  29  71 W8        30.30R WCI  31
HILLSDALE      CLOUDY    34  27  75 W5        30.28S WCI  30
HOWELL         CLOUDY    36  30  79 SW5       30.28S WCI  32

CITY           SKY/WX    TMP DP  RH WIND       PRES   REMARKS
JACKSON        CLOUDY    36  27  69 W5        30.29S WCI  32
LAMBERTVILLE   CLOUDY    38  30  72 W3        30.31S
LANSING        CLOUDY    37  27  67 W9        30.30R WCI  30
LAPEER         NOT AVBL
MASON          CLOUDY    36  31  82 SW3       30.30R
MONROE         CLOUDY    37  31  78 W5        30.30F WCI  33
PONTIAC        CLOUDY    37  29  72 W7        30.26F WCI  32
PORT HOPE        N/A     40  35  83 W6        30.25R
PORT HURON     CLOUDY    39  30  70 W6        30.27F WCI  35
TRI CITIES     CLOUDY    39  32  76 W8        30.28S WCI  33
MIDLAND        CLOUDY    40  29  65 W6        30.27S
TROY           CLOUDY    39  28  63 W7        30.30S WCI  34
SAGINAW HB     CLOUDY    37  30  75 SW8       30.27F WCI  31
$$
MIZ043>046-050>051-056>058-064>065-071>073-077>080-032200-
SOUTHWEST LOWER MICHIGAN

CITY           SKY/WX    TMP DP  RH WIND       PRES   REMARKS
BATTLE CREEK   CLOUDY    36  28  73 W7        30.30S WCI  30
BENTON HARBOR  CLOUDY    37  25  61 SW7       30.32S WCI  32
BIG RAPIDS     CLOUDY    37  29  74 W9        30.27R WCI  30
COLDWATER      CLOUDY    37  26  66 W7        30.30R WCI  31
FREMONT        CLOUDY    34  24  67 W8        30.29R WCI  27
HOLLAND        CLOUDY    37  28  70 W6        30.30S WCI  32
GRAND RAPIDS   CLOUDY    36  27  69 W8        30.30S WCI  30
IONIA          CLOUDY    36  28  75 SW9       30.29R WCI  29
KALAMAZOO      CLOUDY    37  25  61 SW6       30.31S WCI  32
LUDINGTON      CLOUDY    35  30  82 W7        30.29R WCI  29
MARSHALL       CLOUDY    36  29  77 W5        30.29S WCI  32
MOUNT PLEASANT CLOUDY    38  30  72 W6        30.27S WCI  34
MUSKEGON       CLOUDY    36  27  69 W6        30.30F WCI  31
SOUTH HAVEN    CLOUDY    37  28  68 W3        30.31S
$$
MIZ016>042-032200-
NORTHERN LOWER MICHIGAN

CITY           SKY/WX    TMP DP  RH WIND       PRES   REMARKS
ALPENA         CLOUDY    40  27  59 W3        30.25R
BEAVER ISLAND  CLOUDY    38  32  79 NW3       30.25R
BELLAIRE       FLURRIES  36  35  94 CALM      30.26S
CADILLAC       CLOUDY    34  31  88 SW6       30.24S WCI  29
CHARLEVOIX     CLOUDY    37  33  84 SW5       30.28R WCI  34
FRANKFORT      LGT RAIN  36  33  90 W8        30.28R WCI  29
GAYLORD        CLOUDY    36  32  85 SW5       30.23R WCI  32
GRAYLING       CLOUDY    35  34  96 SW3       30.25R
HARBOR SPRINGS CLOUDY    38  30  71 CALM      30.25R
HOUGHTON LAKE  CLOUDY    37  30  75 W8        30.25R WCI  31
MANISTEE       CLOUDY    37  29  72 SW7       30.28S WCI  32
OSCODA         CLOUDY    40  32  73 SW7       30.25R
PELLSTON       CLOUDY    39  29  67 NW5       30.25R
ROGERS CITY    CLOUDY    39  30  70 W5        30.26R
TRAVERSE CITY  LGT RAIN  37  35  92 W6        30.26R WCI  32
$$
MIZ007>008-015-032200-
EASTERN UPPER MICHIGAN

CITY           SKY/WX    TMP DP  RH WIND       PRES   REMARKS
KINROSS        LGT RAIN  34  32  93 W5        30.23S WCI  30
MACKINAC ISLAN CLOUDY    38  28  68 NW5       30.23R WCI  34
NEWBERRY       CLOUDY    36  32  87 NW3       30.23R
S. S. MARIE    PTCLDY    38  30  73 NW7       30.22R WCI  33
MUNISING         N/A     33  32  96 CALM      30.26R
$$
MIZ004>006-011>014-085-032200-
CENTRAL UPPER MICHIGAN

CITY           SKY/WX    TMP DP  RH WIND       PRES   REMARKS
MANISTIQUE     CLOUDY    38  30  73 W3        30.25R
ESCANABA       CLOUDY    37  28  70 W3        30.27R
MENOMINEE      CLOUDY    34  26  72 VRB5      30.29R WCI  30
SAWYER-GWINN   CLOUDY    34  25  69 W3        30.23R
$$
MIZ001>003-009>011-084-032200-
WESTERN UPPER MICHIGAN

CITY           SKY/WX    TMP DP  RH WIND       PRES   REMARKS
IRON MOUNTAIN  CLOUDY    33  25  72 SW7       30.24R WCI  27
HOUGHTON       FLURRIES  33  28  81 SW7       30.22R WCI  27
COPPER HARBOR    N/A     35  29  78 CALM      30.24R
IRONWOOD       CLOUDY    30  22  72 S6        30.23F WCI  24
$$

ABBREVIATIONS USED IN REMARKS
   TC - TEMPERATURE IN CELSIUS
  WCI - WIND CHILL INDEX
   HX - HEAT INDEX
  VSB - VISIBILITY




USA.gov is the U.S. government's official web portal to all federal, state and local government web resources and services.